User: anonymous   Login
Location: Arroyo Grande
(40.2671°N, 4.2512°W)
Time: 00:27:04
(UTC+00:00)
Language:

Delta 2 Rocket - Orbit

View from above orbital plane
View from above orbital plane
View from above satellite
View from above satellite

Ground track
Ground track

The orbit data is extracted from the following two-line orbital elements,

1 20453U 90008B   23154.60383073  .00007979  00000-0  37559-3 0  9990
2 20453  35.6226 329.9672 0242476  14.2842 346.4584 14.96622373772401
Epoch (UTC): 03 June 2023 14:29:30
Eccentricity: 0.0242476
inclination: 35.6226°
perigee height: 408 km
apogee height: 746 km
right ascension of ascending node: 329.9672°
argument of perigee: 14.2842°
revolutions per day: 14.96622373
mean anomaly at epoch: 346.4584°
orbit number at epoch: 77240

The dashed part of the orbit path shows where the satellite is in the earth's shadow,  

DLR